Regional Weather Roundup
Issued by NWS

Home | Current Version | Previous Version | Graphics & Text | Print | Product List | Glossary On
Versions: 1 2 3 4 5 6 7 8 9 10 11 12 13 14 15 16 17 18 19 20 21 22 23 24 25 26 27 28 29 30 31 32 33 34 35 36 37 38 39 40 41 42 43 44 45 46 47 48 49 50
000
ASUS43 KOAX 292202
RWRNE

WEATHER ROUNDUP FOR NEBRASKA
NATIONAL WEATHER SERVICE OMAHA NE
500 PM CDT WED OCT 29 2014

NOTES: SATELLITE DATA IS BEING USED TO AUGMENT CLOUD COVER ABOVE
       12000 FEET.
       "FAIR" INDICATES FEW OR NO CLOUDS BELOW 12,000 FEET WITH NO
       SIGNIFICANT WEATHER AND/OR OBSTRUCTIONS TO VISIBILITY.

  * THESE STATIONS DO NOT REPORT WEATHER SUCH AS RAIN...SNOW OR FOG.

NEZ001>004-019>022-054>056-292300-
NEBRASKA PANHANDLE

CITY           SKY/WX    TMP DP  RH WIND       PRES   REMARKS
SCOTTSBLUFF    MOSUNNY   71  23  16 NW15      29.99S
ALLIANCE       SUNNY     69  23  17 NW22G32   29.96F
CHADRON        MOSUNNY   65  25  22 NW16G24   29.98R
KIMBALL        MOSUNNY   68  21  16 NW28G37   30.03R
SIDNEY         MOSUNNY   70  21  15 NW23G31   30.01S
$$

NEZ057>060-069>072-079>082-292300-
SOUTHWEST NEBRASKA

CITY           SKY/WX    TMP DP  RH WIND       PRES   REMARKS
NORTH PLATTE   SUNNY     70  21  15 SW13      29.98F
IMPERIAL       SUNNY     72  19  13 W8        30.00S
LEXINGTON      SUNNY     67  31  26 S10       30.01S
MCCOOK         SUNNY     73  26  17 S9        30.00F
OGALLALA       SUNNY     74  25  16 W10       29.97F
$$

NEZ005>010-023>029-035>040-094-292300-
NORTH CENTRAL NEBRASKA

CITY           SKY/WX    TMP DP  RH WIND       PRES   REMARKS
VALENTINE      MOSUNNY   65  23  20 SW3       29.94F
AINSWORTH      SUNNY     66  20  17 W8        29.96S
BROKEN BOW     SUNNY     65  30  27 S13       30.00S
O`NEILL        SUNNY     60  31  32 S15       30.00F
ORD            SUNNY     61  29  29 S12       30.00F
THEDFORD       SUNNY     70  24  17 W14       29.96F
$$

NEZ041-046>049-061>064-073>077-083>087-292300-
SOUTH CENTRAL NEBRASKA

CITY           SKY/WX    TMP DP  RH WIND       PRES   REMARKS
GRAND ISLAND   SUNNY     62  31  31 S15G22    30.04F
AURORA         SUNNY     61  28  28 S10       30.05F
HASTINGS       SUNNY     62  30  29 S10G20    30.03F
HEBRON         SUNNY     63  29  27 S8        30.07F
HOLDREGE       SUNNY     65  31  28 S12       30.01F
KEARNEY *      SUNNY     63  30  29 S15       30.03F
YORK           SUNNY     59  32  36 S9        30.07F
$$

NEZ011>018-030>034-042>045-292300-
NORTHEAST NEBRASKA

CITY           SKY/WX    TMP DP  RH WIND       PRES   REMARKS
NORFOLK        SUNNY     57  31  37 S14       30.05F
ALBION         SUNNY     58  29  32 S13G21    30.03F
BLAIR          SUNNY     56  29  35 S5        30.10F
COLUMBUS *     SUNNY     57  30  35 S12       30.08F
FREMONT        SUNNY     56  32  38 SE7       30.10F
TEKAMAH        SUNNY     57  29  34 S9        30.10F
WAYNE          SUNNY     56  29  36 S10       30.07F
$$

NEZ050>053-065>068-078-088>093-292300-
SOUTHEAST NEBRASKA

CITY           SKY/WX    TMP DP  RH WIND       PRES   REMARKS
LINCOLN        SUNNY     59  32  36 S10       30.11F
OMAHA EPPLEY   SUNNY     56  29  35 S6        30.12F
BEATRICE       SUNNY     59  32  36 S10       30.10F
FALLS CITY     SUNNY     59  32  36 SE6       30.12F
NEBRASKA CITY  SUNNY     56  25  29 S5        30.11F
PLATTSMOUTH    SUNNY     56  28  34 SE6       30.11F
$$

NEZ044-045-051>053-067-292300-
OMAHA AREA

CITY           SKY/WX    TMP DP  RH WIND       PRES   REMARKS
OMAHA EPPLEY   SUNNY     56  29  35 S6        30.12F
BLAIR          SUNNY     56  29  35 S5        30.10F
FREMONT        SUNNY     56  32  38 SE7       30.10F
MILLARD        SUNNY     57  31  38 SE3       30.11S
OFFUTT AFB     SUNNY     57  32  39 SE7       30.11F
PLATTSMOUTH    SUNNY     56  28  34 SE6       30.11F
WAHOO          FAIR      58  28  32 S7        30.09F
$$



USA.gov is the U.S. government's official web portal to all federal, state and local government web resources and services.